Regional Weather Roundup
Issued by NWS Little Rock, AR

Home | Current Version | Previous Version | Text Only | Print | Product List | Glossary On
Versions: 1 2 3 4 5 6 7 8 9 10 11 12 13 14 15 16 17 18 19 20 21 22 23 24 25 26 27 28 29 30 31 32 33 34 35 36 37 38 39 40 41 42 43 44 45 46 47 48 49 50
000
ASUS44 KLZK 280805
RWRLZK

WEATHER ROUNDUP FOR ARKANSAS
NATIONAL WEATHER SERVICE LITTLE ROCK AR
300 AM CDT SAT MAY 28 2016

NOTE: "FAIR" INDICATES FEW OR NO CLOUDS BELOW 12,000 FEET WITH NO
SIGNIFICANT WEATHER AND/OR OBSTRUCTIONS TO VISIBILITY.

ARZ001-003-010-029-280900-
NORTHWEST ARKANSAS

CITY           SKY/WX    TMP DP  RH WIND       PRES   REMARKS
FAYETTEVILLE   CLOUDY    63  61  93 CALM      29.83R
FORT SMITH     PTCLDY    65  61  87 NE5       29.82R
HARRISON       CLOUDY    63  60  90 SE9       29.85S
BENTONVILLE    CLOUDY    63  57  82 CALM      29.84R
ROGERS           N/A     62  60  93 SE5       29.84S
SILOAM SPGS    CLOUDY    61  54  77 CALM      29.84R
HIGHFILL       PTCLDY    62  61  96 S5        29.83R
$$

ARZ004-005-016-280900-
NORTH CENTRAL ARKANSAS

CITY           SKY/WX    TMP DP  RH WIND       PRES   REMARKS
BATESVILLE     CLOUDY    68  64  88 S5        29.88R
FLIPPIN        MOCLDY   N/A N/A N/A S7        29.82S
MTN HOME       CLOUDY    66  63  90 S7        29.84
$$

ARZ040-041-280900-
WEST CENTRAL ARKANSAS

CITY           SKY/WX    TMP DP  RH WIND       PRES   REMARKS
MENA           CLOUDY    66  64  94 NW3       29.88S
MOUNT IDA      MOCLDY    63  62  97 CALM      29.85F
$$

ARZ009-017-025-026-028-280900-
NORTHEAST ARKANSAS

CITY           SKY/WX    TMP DP  RH WIND       PRES   REMARKS
CORNING          N/A     68  68 100 S9        29.88F
JONESBORO      MOCLDY    68  65  90 S3        29.90S
NEWPORT        CLOUDY    68  68 100 S5        29.89S
WALNUT RIDGE   CLOUDY    68  63  83 S9        29.88S
BLYTHEVILLE    CLOUDY    69  66  90 CALM      29.91R
$$

ARZ022-023-033-042-044-280900-
CENTRAL ARKANSAS

CITY           SKY/WX    TMP DP  RH WIND       PRES   REMARKS
LITTLE ROCK    CLOUDY    68  62  81 SE3       29.86F
N LITTLE ROCK    N/A     67  63  85 SW3       29.84F
JACKSONVILLE   CLOUDY    66  65  96 SE2       29.85F
SEARCY         CLOUDY    67  66  97 CALM      29.89R
HOT SPRINGS    CLOUDY    66  63  90 CALM      29.88S
RUSSELLVILLE   CLOUDY    66  64  93 CALM      29.86
CLINTON        FAIR      66  66 100 CALM      29.87S
$$

ARZ036-280900-
EAST ARKANSAS

CITY           SKY/WX    TMP DP  RH WIND       PRES   REMARKS
WEST MEMPHIS   CLOUDY    67  66  97 CALM      29.90R
$$

ARZ050-053-066-070-073-280900-
SOUTHWEST ARKANSAS

CITY           SKY/WX    TMP DP  RH WIND       PRES   REMARKS
ARKADELPHIA    FAIR      64  64 100 CALM      29.88F
CAMDEN         FOG       63  61  94 CALM      29.89R VSB 3/4
TEXARKANA      CLOUDY    64  63  96 SE5       29.88S
EL DORADO      CLOUDY    63  63 100 CALM      29.90R
DE QUEEN       CLOUDY    62  62 100 CALM      29.86R FOG
$$

ARZ056-057-069-280900-
SOUTHEAST ARKANSAS

CITY           SKY/WX    TMP DP  RH WIND       PRES   REMARKS
PINE BLUFF     CLOUDY    67  65  93 S3        29.87F
STUTTGART      MOCLDY    70  63  78 S6        29.89F
MONTICELLO     CLOUDY    68  65  90 CALM      29.90S

$$





USA.gov is the U.S. government's official web portal to all federal, state and local government web resources and services.